Location: Klein M�hlingen
(51.9472°N, 11.7453°E)
Time: 03:30:53
(UTC+00:00)

Cosmos 1802 Rocket - Pass Details

Date: 09 April 2020
Orbit: 954 x 1012 km, 82.9° (Epoch: 04 June)

Event Time Altitude Azimuth Distance (km) Brightness Sun altitude
Rises 22:09:16 0° 351° (N) 3,684 8.2 -28.4°
Reaches altitude 10° 22:11:52 10° 356° (N) 2,725 7.2 -28.6°
Maximum altitude 22:17:59 57° 74° (ENE) 1,123 4.2 -28.8°
Enters shadow 22:18:11 57° 82° (E) 1,125 4.2 -28.8°
